period_start,C,m1,H,J0,J1,J2,J3,J4,J5,JA,JB,JC,JD,JJ,JK,JN,#
2016-04-27 00:03:53,-0.03,5.29,0.00,25.20,28.52,31.36,14.51,48.70,1027.46,2028.99,1952.96,1998.98,2233.90,600.10,598.08,57.76,0000 0000 0000 0000 000000
2016-04-27 00:08:54,0.00,5.29,0.00,25.21,28.52,31.36,14.61,48.87,1027.51,2028.99,1953.01,1998.99,2233.96,599.72,597.76,57.82,0000 0000 0000 0000 000000
2016-04-27 00:13:55,-0.01,5.29,0.00,25.24,28.52,31.36,14.50,48.63,1027.62,2028.98,1953.08,1998.99,2233.98,599.90,597.98,57.87,0000 0000 0000 0000 000000
2016-04-27 00:18:57,0.01,5.29,0.00,25.26,28.52,31.35,14.58,48.87,1027.61,2028.98,1953.03,1998.98,2233.98,599.80,597.57,57.92,0000 0000 0000 0000 000000
2016-04-27 00:23:58,0.01,5.29,0.00,25.28,28.52,31.36,14.48,48.54,1027.39,2028.97,1953.00,1998.91,2233.89,599.94,597.70,57.97,0000 0000 0000 0000 000000
2016-04-27 00:28:59,0.05,5.29,0.00,25.30,28.52,31.35,14.51,48.63,1027.50,2028.97,1952.86,1998.38,2233.35,599.80,597.58,58.02,0000 0000 0000 0000 000000
2016-04-27 00:34:01,0.04,5.29,0.00,25.30,28.53,31.36,14.53,48.83,1027.73,2028.94,1952.32,1998.04,2233.02,599.93,597.95,58.07,0000 0000 0000 0000 000000
2016-04-27 00:39:02,0.01,5.29,0.00,25.32,28.54,31.39,14.51,48.73,1027.71,2028.97,1952.08,1998.01,2233.00,600.33,598.34,58.12,0000 0000 0000 0000 000000
2016-04-27 00:44:03,0.00,5.29,0.00,25.34,28.55,31.39,14.51,48.73,1027.63,2028.97,1951.98,1997.99,2232.89,599.61,597.47,58.17,0000 0000 0000 0000 000000
2016-04-27 00:49:05,0.04,5.29,0.00,25.35,28.55,31.39,14.51,48.69,1027.46,2028.97,1951.73,1997.90,2232.46,600.09,597.67,58.22,0000 0000 0000 0000 000000
2016-04-27 00:54:06,0.03,5.29,0.00,25.35,28.55,31.39,14.41,48.83,1027.41,2028.94,1951.39,1997.60,2232.21,599.95,597.57,58.27,0000 0000 0000 0000 000000
2016-04-27 00:59:07,0.03,5.30,0.00,25.37,28.55,31.41,14.52,48.83,1027.37,2028.96,1951.07,1997.18,2232.00,599.98,597.63,58.32,0000 0000 0000 0000 000000
2016-04-27 01:04:09,0.00,5.30,0.00,25.37,28.55,31.40,14.55,48.70,1027.37,2028.98,1951.01,1997.02,2231.99,600.33,597.76,58.37,0000 0000 0000 0000 000000
2016-04-27 01:09:10,0.01,5.30,0.00,25.40,28.57,31.40,14.48,48.75,1027.36,2028.94,1950.75,1996.99,2231.85,599.94,597.34,58.42,0000 0000 0000 0000 000000
2016-04-27 01:14:11,0.03,5.30,0.00,25.40,28.57,31.39,14.59,48.95,1027.36,2028.93,1950.30,1996.95,2231.35,600.22,597.64,58.47,0000 0000 0000 0000 000000
2016-04-27 01:19:13,0.05,5.30,0.00,25.40,28.57,31.40,14.54,48.83,1027.36,2028.92,1950.00,1996.44,2231.03,600.15,597.60,58.52,0000 0000 0000 0000 000000
2016-04-27 01:24:14,0.03,5.30,0.00,25.40,28.57,31.41,14.50,48.85,1027.35,2028.92,1949.78,1996.02,2230.94,599.98,597.43,58.57,0000 0000 0000 0000 000000
2016-04-27 01:29:15,0.04,5.31,0.00,25.42,28.57,31.39,14.47,48.84,1027.28,2028.92,1949.21,1995.99,2230.53,600.15,597.44,58.62,0000 0000 0000 0000 000000
2016-04-27 01:34:17,0.05,5.31,0.00,25.42,28.59,31.41,14.50,48.85,1027.22,2028.83,1948.76,1995.59,2229.97,600.45,597.74,58.67,0000 0000 0000 0000 000000
2016-04-27 01:39:18,0.05,5.31,0.00,25.42,28.60,31.42,14.44,48.83,1027.03,2028.87,1948.16,1995.03,2229.69,600.07,597.35,58.72,0000 0000 0000 0000 000000
2016-04-27 01:44:19,0.01,5.31,0.00,25.42,28.60,31.42,14.52,48.96,1027.11,2028.82,1948.01,1995.00,2229.12,600.06,597.37,58.77,0000 0000 0000 0000 000000
2016-04-27 01:49:20,0.04,5.31,0.00,25.42,28.60,31.43,14.59,48.96,1027.30,2028.60,1947.48,1994.68,2228.98,600.29,597.67,58.83,0000 0000 0000 0000 000000
2016-04-27 01:54:22,0.05,5.32,0.00,25.42,28.60,31.41,14.46,48.83,1027.30,2028.64,1947.05,1994.13,2228.50,599.90,597.33,58.88,0000 0000 0000 0000 000000
2016-04-27 01:59:23,0.00,5.32,0.00,25.42,28.60,31.41,14.51,48.97,1027.31,2028.49,1946.65,1993.99,2228.02,600.09,597.48,58.93,0000 0000 0000 0000 000000
2016-04-27 02:04:24,0.05,5.32,0.00,25.42,28.60,31.44,14.50,48.78,1027.34,2028.62,1946.02,1993.76,2227.81,600.02,597.56,58.98,0000 0000 0000 0000 000000
2016-04-27 02:09:26,0.04,5.32,0.00,25.44,28.60,31.43,14.59,48.67,1027.35,2028.43,1945.90,1993.13,2227.11,600.34,597.72,59.03,0000 0000 0000 0000 000000
2016-04-27 02:14:27,0.02,5.32,0.00,25.45,28.60,31.44,14.44,48.77,1027.36,2028.33,1945.32,1993.00,2227.00,599.66,597.03,59.08,0000 0000 0000 0000 000000
2016-04-27 02:19:29,0.01,5.32,0.00,25.45,28.62,31.45,14.54,48.78,1027.36,2028.29,1945.00,1992.98,2226.92,600.31,597.69,59.13,0000 0000 0000 0000 000000
2016-04-27 02:24:30,0.02,5.32,0.00,25.45,28.62,31.47,14.55,48.92,1027.36,2028.20,1944.96,1992.64,2226.41,600.07,597.43,59.18,0000 0000 0000 0000 000000
2016-04-27 02:29:31,0.05,5.33,0.00,25.45,28.62,31.45,14.46,49.11,1027.35,2028.20,1944.57,1992.13,2226.04,599.60,596.90,59.23,0000 0000 0000 0000 000000
2016-04-27 02:34:33,0.01,5.33,0.00,25.45,28.62,31.44,14.53,48.88,1027.34,2028.18,1944.09,1992.01,2225.99,599.60,597.09,59.28,0000 0000 0000 0000 000000
2016-04-27 02:39:34,-0.00,5.33,0.00,25.45,28.62,31.46,14.52,48.90,1027.32,2028.15,1943.99,1991.99,2225.89,599.92,597.32,59.33,0000 0000 0000 0000 000000
2016-04-27 02:44:35,0.07,5.33,0.00,25.44,28.62,31.46,14.52,49.02,1027.35,2028.33,1943.61,1991.81,2225.19,599.72,597.02,59.38,0000 0000 0000 0000 000000
2016-04-27 02:49:37,0.06,5.33,0.00,25.45,28.62,31.47,14.62,49.06,1027.34,2028.54,1943.14,1991.33,2225.01,600.09,597.49,59.43,0000 0000 0000 0000 000000
2016-04-27 02:54:38,-0.02,5.34,0.00,25.45,28.62,31.45,14.47,48.96,1027.35,2028.27,1942.96,1991.01,2224.92,599.73,597.05,59.48,0000 0000 0000 0000 000000
2016-04-27 02:59:39,0.08,5.34,0.00,25.45,28.62,31.46,14.55,48.93,1027.36,2028.25,1942.21,1990.94,2224.14,600.12,597.52,59.53,0000 0000 0000 0000 000000
2016-04-27 03:04:40,0.00,5.34,0.00,25.44,28.62,31.45,14.52,48.88,1027.36,2028.12,1942.01,1990.50,2224.00,600.06,597.47,59.58,0000 0000 0000 0000 000000
2016-04-27 03:09:42,0.02,5.34,0.00,25.44,28.62,31.46,14.50,48.86,1027.36,2028.12,1941.85,1990.06,2223.90,599.91,597.41,59.63,0000 0000 0000 0000 000000
2016-04-27 03:14:43,0.05,5.34,0.00,25.45,28.62,31.46,14.57,48.81,1027.35,2028.05,1941.14,1990.00,2223.23,600.20,597.64,59.69,0000 0000 0000 0000 000000
2016-04-27 03:19:44,0.02,5.34,0.00,25.45,28.63,31.45,14.48,48.57,1027.36,2028.13,1940.99,1989.96,2223.01,599.90,597.29,59.74,0000 0000 0000 0000 000000
2016-04-27 03:24:46,0.05,5.34,0.00,25.45,28.63,31.47,14.53,48.76,1027.36,2028.16,1940.67,1989.60,2222.93,599.71,597.03,59.79,0000 0000 0000 0000 000000
2016-04-27 03:29:47,0.06,5.35,0.00,25.45,28.63,31.46,14.55,49.07,1027.36,2028.26,1940.08,1989.09,2222.35,600.30,597.81,59.84,0000 0000 0000 0000 000000
2016-04-27 03:34:48,0.02,5.35,0.00,25.45,28.64,31.45,14.55,48.92,1027.36,2028.35,1939.97,1989.00,2222.01,600.31,597.70,59.89,0000 0000 0000 0000 000000
2016-04-27 03:39:50,0.00,5.35,0.00,25.46,28.64,31.45,14.50,48.95,1027.35,2028.26,1939.87,1988.99,2221.98,599.95,597.40,59.94,0000 0000 0000 0000 000000
2016-04-27 03:44:51,0.05,5.35,0.00,25.46,28.64,31.46,14.57,48.66,1027.35,2028.31,1939.25,1988.85,2221.83,600.21,597.61,59.99,0000 0000 0000 0000 000000
2016-04-27 03:49:52,0.03,5.35,0.00,25.46,28.64,31.44,14.49,48.97,1027.33,2028.25,1939.01,1988.42,2221.43,599.87,597.28,60.04,0000 0000 0000 0000 000000
2016-04-27 03:54:53,0.04,5.36,0.00,25.47,28.65,31.45,14.49,49.00,1027.23,2028.28,1938.76,1988.04,2221.03,600.14,597.39,60.09,0000 0000 0000 0000 000000
2016-04-27 03:59:55,-0.02,3.39,0.00,25.47,28.66,31.45,13.10,42.92,1026.94,2029.64,2517.13,2412.71,2715.63,532.72,526.46,0.01,0000 0000 0000 0000 000002
2016-04-27 04:04:56,-0.06,0.00,0.00,25.47,28.65,31.48,14.52,49.83,1026.88,2032.02,3511.27,3144.09,3568.91,600.22,597.38,0.03,0000 0000 0000 0000 000000
2016-04-27 04:09:58,-0.05,0.00,0.00,25.48,28.65,31.48,14.46,49.99,1026.87,2032.01,3509.04,3143.06,3567.60,599.58,596.73,0.08,0000 0000 0000 0000 000000
2016-04-27 04:14:59,-0.03,0.00,0.00,25.47,28.65,31.47,14.53,49.91,1026.87,2032.01,3508.01,3142.61,3566.64,600.08,597.08,0.13,0000 0000 0000 0000 000000
2016-04-27 04:20:00,-0.00,0.00,0.00,25.47,28.65,31.45,14.44,49.92,1026.88,2032.00,3507.01,3142.01,3565.86,599.86,596.89,0.18,0000 0000 0000 0000 000000
2016-04-27 04:25:01,0.01,0.01,0.00,25.48,28.65,31.47,14.50,49.91,1026.93,2032.00,3506.09,3141.54,3565.05,600.23,597.28,0.23,0000 0000 0000 0000 000000
2016-04-27 04:30:03,0.03,0.01,0.00,25.50,28.65,31.46,14.52,49.98,1027.01,2032.01,3505.45,3141.02,3564.54,599.91,597.00,0.28,0000 0000 0000 0000 000000
2016-04-27 04:35:04,0.03,0.01,0.00,25.50,28.65,31.46,14.42,49.91,1027.12,2032.01,3504.68,3140.68,3563.83,599.93,597.05,0.33,0000 0000 0000 0000 000000
2016-04-27 04:40:05,0.02,0.01,0.00,25.50,28.65,31.45,14.54,50.01,1027.30,2032.01,3504.01,3140.03,3563.05,600.15,597.36,0.38,0000 0000 0000 0000 000000
2016-04-27 04:45:07,0.03,0.01,0.00,25.51,28.65,31.46,14.52,50.04,1027.29,2032.00,3503.21,3139.90,3562.53,599.85,597.17,0.43,0000 0000 0000 0000 000000
2016-04-27 04:50:08,0.03,0.01,0.00,25.52,28.65,31.46,14.50,49.88,1027.32,2032.00,3502.49,3139.14,3561.99,599.92,597.22,0.48,0000 0000 0000 0000 000000
2016-04-27 04:55:09,0.01,0.01,0.00,25.51,28.65,31.47,14.56,49.83,1027.17,2032.00,3502.00,3139.00,3561.40,599.95,597.10,0.53,0000 0000 0000 0000 000000
2016-04-27 05:00:10,0.02,0.02,0.00,25.52,28.65,31.47,14.48,49.78,1026.99,2032.01,3501.30,3138.75,3560.98,599.95,597.12,0.58,0000 0000 0000 0000 000000
2016-04-27 05:05:12,0.03,0.02,0.00,25.52,28.65,31.46,14.48,49.77,1026.93,2032.00,3500.85,3138.07,3560.22,600.07,596.91,0.63,0000 0000 0000 0000 000000
2016-04-27 05:10:13,0.01,0.02,0.00,25.53,28.65,31.47,14.53,50.02,1026.91,2032.00,3500.04,3137.95,3559.92,599.98,596.95,0.68,0000 0000 0000 0000 000000
2016-04-27 05:15:14,0.05,0.02,0.00,25.52,28.65,31.46,14.53,50.03,1027.03,2032.02,3499.36,3137.30,3559.11,600.22,597.27,0.73,0000 0000 0000 0000 000000
2016-04-27 05:20:16,0.01,0.02,0.00,25.52,28.65,31.47,14.45,50.09,1027.07,2032.01,3498.82,3137.00,3558.74,599.83,596.91,0.78,0000 0000 0000 0000 000000
2016-04-27 05:25:17,0.03,0.02,0.00,25.52,28.65,31.47,14.52,50.12,1027.12,2032.01,3498.05,3136.75,3558.05,600.04,597.14,0.83,0000 0000 0000 0000 000000
2016-04-27 05:30:19,0.04,0.02,0.00,25.52,28.65,31.48,14.39,49.88,1027.14,2032.00,3497.32,3136.03,3557.55,599.74,597.01,0.88,0000 0000 0000 0000 000000
2016-04-27 05:35:20,0.02,0.03,0.00,25.52,28.65,31.49,14.45,49.88,1027.26,2032.00,3496.68,3135.80,3556.98,600.04,597.15,0.93,0000 0000 0000 0000 000000
2016-04-27 05:40:21,0.03,0.03,0.00,25.52,28.65,31.48,14.58,49.83,1027.22,2032.00,3496.02,3135.09,3556.26,600.40,597.56,0.98,0000 0000 0000 0000 000000
2016-04-27 05:45:23,0.01,0.03,0.00,25.52,28.65,31.48,14.54,49.82,1027.14,2032.00,3495.49,3135.00,3555.95,600.18,597.35,1.03,0000 0000 0000 0000 000000
2016-04-27 05:50:24,0.03,0.03,0.00,25.52,28.65,31.48,14.67,49.94,1027.32,2032.00,3494.81,3134.74,3555.19,600.70,597.88,1.08,0000 0000 0000 0000 000000
2016-04-27 05:55:25,0.02,0.03,0.00,25.53,28.65,31.47,14.55,49.80,1027.33,2032.00,3494.05,3134.06,3554.93,600.10,597.37,1.13,0000 0000 0000 0000 000000
2016-04-27 06:00:26,0.02,0.03,0.00,25.55,28.65,31.48,14.47,49.75,1027.24,2032.00,3493.55,3133.96,3554.13,599.65,596.78,1.18,0000 0000 0000 0000 000000
2016-04-27 06:05:28,0.03,0.03,0.00,25.55,28.65,31.47,14.47,49.77,1027.25,2032.00,3492.92,3133.29,3553.54,599.76,596.97,1.23,0000 0000 0000 0000 000000
2016-04-27 06:10:29,0.02,0.04,0.00,25.55,28.66,31.47,14.50,49.64,1027.33,2032.00,3492.09,3133.00,3553.00,599.78,597.01,1.28,0000 0000 0000 0000 000000
2016-04-27 06:15:31,0.03,0.04,0.00,25.57,28.66,31.47,14.49,49.65,1027.30,2032.00,3491.58,3132.66,3552.48,600.11,597.11,1.33,0000 0000 0000 0000 000000
2016-04-27 06:20:32,0.02,0.04,0.00,25.57,28.67,31.48,14.49,49.56,1027.07,2032.00,3491.00,3132.04,3552.01,600.15,597.13,1.38,0000 0000 0000 0000 000000
2016-04-27 06:25:33,0.02,0.04,0.00,25.57,28.67,31.48,14.47,49.45,1026.93,2032.00,3490.28,3131.99,3551.56,600.08,597.06,1.43,0000 0000 0000 0000 000000
2016-04-27 06:30:34,0.02,0.04,0.00,25.57,28.67,31.48,14.46,49.52,1026.91,2032.00,3489.94,3131.54,3551.01,600.10,596.98,1.49,0000 0000 0000 0000 000000
2016-04-27 06:35:36,0.03,0.04,0.00,25.57,28.67,31.48,14.50,49.41,1026.89,2032.00,3489.15,3131.03,3550.45,599.94,597.01,1.54,0000 0000 0000 0000 000000
2016-04-27 06:40:37,0.04,0.04,0.00,25.59,28.67,31.48,14.47,49.30,1026.90,2032.00,3488.21,3130.59,3549.82,599.88,596.73,1.59,0000 0000 0000 0000 000000
2016-04-27 06:45:38,0.02,0.05,0.00,25.59,28.67,31.49,14.48,49.51,1026.89,2032.00,3487.62,3130.01,3549.06,600.07,596.89,1.64,0000 0000 0000 0000 000000
2016-04-27 06:50:39,0.00,0.05,0.00,25.59,28.67,31.49,14.46,49.64,1026.88,2032.00,3487.01,3129.96,3548.89,599.66,596.47,1.69,0000 0000 0000 0000 000000
2016-04-27 06:55:40,0.04,0.05,0.00,25.60,28.67,31.50,14.54,49.69,1026.88,2032.00,3486.40,3129.26,3548.10,600.02,596.89,1.74,0000 0000 0000 0000 000000
2016-04-27 07:00:41,0.00,0.05,0.00,25.59,28.67,31.49,14.58,49.83,1026.88,2032.00,3485.98,3129.00,3547.85,600.34,597.04,1.79,0000 0000 0000 0000 000000
2016-04-27 07:05:43,0.02,0.05,0.00,25.60,28.67,31.50,14.50,49.52,1026.88,2032.00,3485.25,3128.89,3547.09,599.98,596.75,1.84,0000 0000 0000 0000 000000
2016-04-27 07:10:44,0.02,0.05,0.00,25.60,28.67,31.50,14.53,49.67,1026.88,2032.00,3484.95,3128.17,3546.90,600.54,597.36,1.89,0000 0000 0000 0000 000000
2016-04-27 07:15:45,0.02,0.05,0.00,25.60,28.67,31.50,14.51,49.67,1026.88,2032.00,3484.20,3128.00,3546.22,600.14,596.96,1.94,0000 0000 0000 0000 000000
2016-04-27 07:20:46,0.03,0.05,0.00,25.60,28.67,31.50,14.48,49.50,1026.87,2032.00,3483.74,3127.68,3545.67,600.23,596.89,1.99,0000 0000 0000 0000 000000
2016-04-27 07:25:48,0.01,0.06,0.00,25.60,28.67,31.50,14.47,49.60,1026.87,2032.00,3482.92,3127.02,3544.94,599.89,596.72,2.04,0000 0000 0000 0000 000000
2016-04-27 07:30:49,0.03,0.06,0.00,25.58,28.67,31.51,14.50,49.65,1026.86,2032.00,3482.08,3126.73,3544.16,599.98,596.89,2.09,0000 0000 0000 0000 000000
2016-04-27 07:35:50,0.02,0.06,0.00,25.53,28.67,31.49,14.50,49.60,1026.82,2032.00,3481.51,3126.05,3543.89,599.94,596.92,2.14,0000 0000 0000 0000 000000
2016-04-27 07:40:51,0.03,0.06,0.00,25.49,28.67,31.49,14.52,49.83,1026.86,2031.99,3480.76,3125.78,3543.07,599.82,596.94,2.19,0000 0000 0000 0000 000000
2016-04-27 07:45:53,0.03,0.06,0.00,25.47,28.67,31.50,14.60,49.92,1026.87,2031.99,3479.95,3125.08,3542.47,600.19,597.21,2.24,0000 0000 0000 0000 000000
2016-04-27 07:50:54,0.04,0.06,0.00,25.45,28.67,31.50,14.65,49.86,1026.82,2031.99,3479.08,3124.63,3541.68,600.64,597.77,2.29,0000 0000 0000 0000 000000
2016-04-27 07:55:55,0.03,0.07,0.00,25.42,28.67,31.51,14.50,49.77,1026.86,2031.99,3478.24,3123.97,3540.80,599.79,597.00,2.34,0000 0000 0000 0000 000000
2016-04-27 08:00:56,0.04,0.07,0.00,25.40,28.67,31.50,14.49,49.70,1026.87,2031.99,3477.31,3123.16,3540.01,599.79,597.01,2.39,0000 0000 0000 0000 000000
2016-04-27 08:05:58,0.04,0.07,0.00,25.40,28.67,31.51,14.54,49.65,1026.87,2031.99,3476.22,3122.70,3539.16,600.12,597.35,2.44,0000 0000 0000 0000 000000
2016-04-27 08:10:59,0.04,0.07,0.00,25.39,28.67,31.51,14.53,49.73,1026.87,2031.99,3475.21,3121.97,3538.17,600.14,597.37,2.49,0000 0000 0000 0000 000000
2016-04-27 08:16:00,0.05,0.08,0.00,25.37,28.67,31.50,14.49,49.52,1026.87,2031.99,3474.18,3121.14,3537.22,599.73,596.85,2.54,0000 0000 0000 0000 000000
2016-04-27 08:21:01,0.05,0.08,0.00,25.37,28.67,31.50,14.52,49.68,1026.87,2031.99,3473.06,3120.52,3536.41,600.21,597.43,2.59,0000 0000 0000 0000 000000
2016-04-27 08:26:02,0.05,0.08,0.00,25.37,28.66,31.51,14.52,49.93,1026.82,2031.99,3471.91,3119.77,3535.41,599.89,597.13,2.64,0000 0000 0000 0000 000000
2016-04-27 08:31:04,0.04,0.08,0.00,25.35,28.65,31.50,14.48,49.77,1026.77,2031.99,3470.78,3119.01,3534.38,599.86,597.19,2.69,0000 0000 0000 0000 000000
2016-04-27 08:36:05,0.06,0.09,0.00,25.32,28.65,31.49,14.55,50.01,1026.40,2031.99,3469.51,3118.16,3533.35,600.27,597.35,2.74,0000 0000 0000 0000 000000
2016-04-27 08:41:06,0.05,0.09,0.00,25.32,28.65,31.49,14.50,49.86,1026.70,2031.99,3468.42,3117.37,3532.31,599.60,596.84,2.79,0000 0000 0000 0000 000000
2016-04-27 08:46:08,0.05,0.09,0.00,25.32,28.65,31.49,14.51,49.70,1026.87,2031.99,3467.24,3116.55,3531.31,600.24,597.63,2.84,0000 0000 0000 0000 000000
2016-04-27 08:51:09,0.05,0.09,0.00,25.31,28.64,31.48,14.60,50.00,1026.87,2031.99,3466.06,3115.77,3530.23,600.25,597.69,2.89,0000 0000 0000 0000 000000
2016-04-27 08:56:10,0.05,0.10,0.00,25.28,28.62,31.48,14.52,49.80,1026.87,2031.98,3464.76,3114.97,3529.19,599.98,597.38,2.94,0000 0000 0000 0000 000000
2016-04-27 09:01:12,0.05,0.10,0.00,25.28,28.62,31.48,14.54,49.84,1026.89,2031.99,3463.54,3114.13,3528.25,599.92,597.35,2.99,0000 0000 0000 0000 000000
2016-04-27 09:06:13,0.05,0.10,0.00,25.27,28.62,31.46,14.50,49.53,1026.91,2031.99,3462.40,3113.34,3527.32,599.63,597.13,3.04,0000 0000 0000 0000 000000
2016-04-27 09:11:14,0.05,0.11,0.00,25.24,28.62,31.46,14.41,49.57,1026.88,2031.99,3461.09,3112.49,3526.24,599.69,597.31,3.09,0000 0000 0000 0000 000000
2016-04-27 09:16:16,0.04,0.11,0.00,25.22,28.60,31.47,14.58,49.69,1026.87,2031.99,3459.92,3111.72,3525.28,600.18,597.64,3.14,0000 0000 0000 0000 000000
2016-04-27 09:21:17,0.04,0.11,0.00,25.22,28.60,31.46,14.52,49.50,1026.87,2031.99,3458.91,3110.98,3524.34,599.91,597.41,3.19,0000 0000 0000 0000 000000
2016-04-27 09:26:18,0.05,0.11,0.00,25.23,28.60,31.45,14.54,49.58,1026.87,2031.99,3457.77,3110.14,3523.38,600.31,597.92,3.24,0000 0000 0000 0000 000000
2016-04-27 09:31:19,0.05,0.12,0.00,25.21,28.60,31.44,14.49,49.68,1026.87,2031.99,3456.60,3109.48,3522.53,599.82,597.41,3.29,0000 0000 0000 0000 000000
2016-04-27 09:36:21,0.05,0.12,0.00,25.20,28.58,31.42,14.47,49.65,1026.87,2031.99,3455.52,3108.73,3521.46,599.89,597.29,3.34,0000 0000 0000 0000 000000
2016-04-27 09:41:22,0.04,0.12,0.00,25.20,28.57,31.42,14.54,49.73,1026.87,2031.99,3454.44,3107.98,3520.51,599.92,597.57,3.39,0000 0000 0000 0000 000000
2016-04-27 09:46:23,0.05,0.12,0.00,25.19,28.57,31.42,14.55,49.57,1026.86,2031.99,3453.39,3107.16,3519.70,600.09,597.71,3.44,0000 0000 0000 0000 000000
2016-04-27 09:51:25,0.04,0.13,0.00,25.16,28.57,31.41,14.52,49.76,1026.87,2031.99,3452.28,3106.53,3518.93,599.37,597.07,3.49,0000 0000 0000 0000 000000
2016-04-27 09:56:26,0.03,0.13,0.00,25.15,28.55,31.42,14.47,49.50,1026.87,2031.99,3451.22,3105.96,3518.11,599.84,597.62,3.54,0000 0000 0000 0000 000000
2016-04-27 10:01:27,0.05,0.13,0.00,25.15,28.55,31.42,14.61,49.64,1026.87,2031.99,3449.99,3105.11,3517.20,601.04,598.75,3.59,0000 0000 0000 0000 000000
2016-04-27 10:06:29,0.05,0.13,0.00,25.14,28.54,31.41,14.53,49.60,1026.87,2031.99,3448.87,3104.56,3516.43,600.02,597.74,3.64,0000 0000 0000 0000 000000
2016-04-27 10:11:30,0.05,0.14,0.00,25.12,28.52,31.38,14.60,49.58,1026.87,2031.99,3447.76,3103.80,3515.53,600.20,598.00,3.69,0000 0000 0000 0000 000000
2016-04-27 10:16:31,0.05,0.14,0.00,25.10,28.52,31.38,14.49,49.40,1026.87,2031.99,3446.56,3103.00,3514.65,599.75,597.75,3.74,0000 0000 0000 0000 000000
2016-04-27 10:21:33,0.05,0.14,0.00,25.11,28.52,31.38,14.54,49.38,1026.87,2031.99,3445.50,3102.28,3513.74,600.31,598.01,3.79,0000 0000 0000 0000 000000
2016-04-27 10:26:34,0.03,0.14,0.00,25.14,28.51,31.37,14.51,49.37,1026.81,2032.00,3444.49,3101.77,3512.95,600.05,597.64,3.84,0000 0000 0000 0000 000000
2016-04-27 10:31:35,0.04,0.15,0.00,25.16,28.50,31.37,14.50,49.43,1026.71,2032.00,3443.40,3101.02,3512.09,599.68,597.28,3.90,0000 0000 0000 0000 000000
2016-04-27 10:36:37,0.05,0.15,0.00,25.17,28.50,31.38,14.52,49.39,1026.50,2032.00,3442.35,3100.22,3511.19,599.80,597.28,3.95,0000 0000 0000 0000 000000
2016-04-27 10:41:38,0.04,0.15,0.00,25.17,28.50,31.37,14.57,49.30,1026.55,2032.00,3441.24,3099.75,3510.33,600.11,597.59,4.00,0000 0000 0000 0000 000000
2016-04-27 10:46:39,0.04,0.15,0.00,25.17,28.50,31.37,14.53,49.14,1026.70,2032.01,3440.18,3099.01,3509.62,600.15,597.62,4.05,0000 0000 0000 0000 000000
2016-04-27 10:51:40,0.06,0.16,0.00,25.20,28.50,31.35,14.54,49.17,1026.84,2032.00,3439.06,3098.16,3508.65,600.00,597.67,4.10,0000 0000 0000 0000 000000
2016-04-27 10:56:42,0.05,0.16,0.00,25.21,28.49,31.35,14.55,49.03,1026.84,2032.00,3437.86,3097.50,3507.79,600.34,597.91,4.15,0000 0000 0000 0000 000000
2016-04-27 11:01:43,0.04,0.16,0.00,25.22,28.49,31.35,14.55,49.10,1026.85,2032.00,3436.79,3096.81,3506.91,600.09,597.65,4.20,0000 0000 0000 0000 000000
2016-04-27 11:06:45,0.04,0.16,0.00,25.22,28.49,31.35,14.54,49.03,1026.70,2032.01,3435.76,3096.05,3506.02,600.05,597.49,4.25,0000 0000 0000 0000 000000
2016-04-27 11:11:46,0.06,0.17,0.00,25.22,28.48,31.34,14.42,48.87,1026.42,2032.00,3434.56,3095.25,3505.07,599.78,597.13,4.30,0000 0000 0000 0000 000000
2016-04-27 11:16:47,0.05,0.17,0.00,25.23,28.48,31.35,14.49,48.98,1026.39,2032.00,3433.43,3094.56,3504.15,599.79,597.13,4.35,0000 0000 0000 0000 000000
2016-04-27 11:21:49,0.04,0.17,0.00,25.25,28.47,31.36,14.56,48.95,1026.38,2032.01,3432.28,3093.91,3503.26,600.29,597.45,4.40,0000 0000 0000 0000 000000
2016-04-27 11:26:50,0.05,0.17,0.00,25.24,28.47,31.34,14.58,49.29,1026.39,2032.02,3431.18,3093.09,3502.41,600.12,597.37,4.45,0000 0000 0000 0000 000000
2016-04-27 11:31:51,0.06,0.18,0.00,25.25,28.47,31.34,14.45,49.01,1026.44,2032.02,3429.98,3092.25,3501.36,599.73,597.25,4.50,0000 0000 0000 0000 000000
2016-04-27 11:36:52,0.05,0.18,0.00,25.25,28.47,31.35,14.55,48.98,1026.52,2032.01,3428.79,3091.53,3500.44,600.28,597.51,4.55,0000 0000 0000 0000 000000
2016-04-27 11:41:53,0.05,0.18,0.00,25.25,28.47,31.34,14.50,48.95,1026.40,2032.00,3427.60,3090.70,3499.36,599.70,596.94,4.60,0000 0000 0000 0000 000000
2016-04-27 11:46:55,0.04,0.18,0.00,25.24,28.47,31.34,14.56,48.98,1026.40,2032.00,3426.50,3089.92,3498.44,600.29,597.50,4.65,0000 0000 0000 0000 000000
2016-04-27 11:51:56,0.05,0.19,0.00,25.25,28.47,31.36,14.47,49.00,1026.38,2032.00,3425.27,3089.06,3497.37,599.77,596.98,4.70,0000 0000 0000 0000 000000
2016-04-27 11:56:58,0.05,0.19,0.00,25.24,28.47,31.33,14.52,49.18,1026.29,2032.00,3424.20,3088.29,3496.50,599.58,596.82,4.75,0000 0000 0000 0000 000000
2016-04-27 12:01:59,0.04,0.19,0.00,25.23,28.47,31.35,14.45,49.16,1025.95,2032.00,3423.14,3087.71,3495.69,600.00,597.09,4.80,0000 0000 0000 0000 000000
2016-04-27 12:07:00,0.03,0.19,0.00,25.22,28.47,31.34,14.47,49.23,1025.91,2032.00,3422.03,3086.99,3494.84,600.11,597.08,4.85,0000 0000 0000 0000 000000
2016-04-27 12:12:01,0.05,0.20,0.00,25.20,28.47,31.35,14.56,49.31,1025.90,2032.00,3420.93,3086.14,3493.90,600.30,597.16,4.90,0000 0000 0000 0000 000000
2016-04-27 12:17:02,0.06,0.20,0.00,25.20,28.47,31.34,14.46,49.11,1025.92,2032.00,3419.71,3085.37,3492.82,600.07,597.27,4.95,0000 0000 0000 0000 000000
2016-04-27 12:22:04,0.05,0.20,0.00,25.19,28.47,31.33,14.55,49.18,1026.06,2032.00,3418.47,3084.48,3491.75,599.90,597.04,5.00,0000 0000 0000 0000 000000
2016-04-27 12:27:05,0.05,0.20,0.00,25.18,28.47,31.34,14.55,49.29,1026.34,2032.00,3417.21,3083.65,3490.76,600.21,597.72,5.05,0000 0000 0000 0000 000000
2016-04-27 12:32:06,0.04,0.21,0.00,25.17,28.45,31.34,14.48,49.14,1026.37,2032.00,3416.03,3082.87,3489.83,599.71,597.16,5.10,0000 0000 0000 0000 000000
2016-04-27 12:37:07,0.05,0.21,0.00,25.17,28.45,31.34,14.57,49.02,1026.38,2032.00,3414.88,3082.05,3488.91,600.03,597.44,5.15,0000 0000 0000 0000 000000
2016-04-27 12:42:09,0.05,0.21,0.00,25.17,28.45,31.36,14.47,49.17,1026.36,2032.00,3413.74,3081.33,3487.99,599.92,597.29,5.20,0000 0000 0000 0000 000000
2016-04-27 12:47:10,0.05,0.22,0.00,25.17,28.45,31.34,14.48,49.20,1026.31,2032.01,3412.65,3080.66,3487.07,599.33,596.67,5.25,0000 0000 0000 0000 000000
2016-04-27 12:52:11,0.04,0.22,0.00,25.17,28.45,31.32,14.54,49.17,1026.06,2032.01,3411.53,3079.93,3486.12,600.30,597.57,5.30,0000 0000 0000 0000 000000
2016-04-27 12:57:13,0.05,0.22,0.00,25.17,28.44,31.31,14.48,49.02,1025.94,2032.01,3410.46,3079.09,3485.18,600.19,597.33,5.35,0000 0000 0000 0000 000000
2016-04-27 13:02:14,0.05,0.22,0.00,25.17,28.43,31.31,14.49,49.23,1025.90,2032.00,3409.30,3078.39,3484.33,600.15,597.25,5.40,0000 0000 0000 0000 000000